AAL2120 KDCA-KBOS

Flight info

Callsign AAL2120
Flight time 1h 5m
Altitude 37000
Route SOOKI5 SWANN BROSS Q419 JFK ROBUC3
Aircraft A320/M-SDE3FGHIRWY/LB1

Departure

Time 2026-05-08 02:01
Airport Ronald Reagan Washington National Airport (KDCA)

Arrival

Time 2026-05-08 03:07
Airport Boston Logan International Airport (KBOS)
Time Latitude Longitude Altitude Speed Heading
2026-05-08 01:34 38.85576 -77.04170 26 ft 0 kts 334°
2026-05-08 01:50 38.85562 -77.04162 25 ft 2 kts 334°
2026-05-08 01:50 38.85546 -77.04152 28 ft 2 kts 335°
2026-05-08 01:50 38.85530 -77.04150 26 ft 2 kts 46°
2026-05-08 01:50 38.85526 -77.04155 24 ft 0 kts 66°
2026-05-08 01:53 38.85528 -77.04150 24 ft 3 kts 66°
2026-05-08 01:53 38.85530 -77.04124 24 ft 3 kts 83°
2026-05-08 01:54 38.85534 -77.04102 24 ft 0 kts 76°
2026-05-08 01:54 38.85535 -77.04093 24 ft 3 kts 76°
2026-05-08 01:54 38.85543 -77.04058 25 ft 4 kts 72°
2026-05-08 01:55 38.85574 -77.04031 24 ft 8 kts
2026-05-08 01:55 38.85644 -77.04042 24 ft 11 kts 355°
2026-05-08 01:55 38.85706 -77.04049 27 ft 0 kts 355°
2026-05-08 01:56 38.85722 -77.04050 25 ft 7 kts 355°
2026-05-08 01:57 38.85787 -77.04057 28 ft 11 kts 355°
2026-05-08 01:57 38.85890 -77.04065 27 ft 15 kts
2026-05-08 01:57 38.85941 -77.04017 24 ft 9 kts 82°
2026-05-08 01:57 38.85973 -77.03969 25 ft 7 kts 18°
2026-05-08 01:58 38.86006 -77.03957 24 ft 0 kts 17°
2026-05-08 01:59 38.86007 -77.03956 24 ft 2 kts 17°
2026-05-08 01:59 38.86059 -77.03935 24 ft 12 kts 22°
2026-05-08 02:00 38.86082 -77.03879 23 ft 6 kts 130°
2026-05-08 02:00 38.86041 -77.03865 24 ft 0 kts 176°
2026-05-08 02:00 38.86038 -77.03865 24 ft 3 kts 176°
2026-05-08 02:00 38.85888 -77.03853 27 ft 56 kts 175°
2026-05-08 02:01 38.85264 -77.03788 25 ft 121 kts 175°
2026-05-08 02:01 38.84287 -77.03683 222 ft 150 kts 176°
2026-05-08 02:01 38.83252 -77.03573 808 ft 151 kts 174°
2026-05-08 02:01 38.82203 -77.03383 1417 ft 152 kts 174°
2026-05-08 02:02 38.81148 -77.03151 1891 ft 161 kts 173°
2026-05-08 02:02 38.79988 -77.02895 2228 ft 180 kts 173°
2026-05-08 02:02 38.78655 -77.02607 2473 ft 207 kts 173°
2026-05-08 02:02 38.77157 -77.02273 2857 ft 231 kts 169°
2026-05-08 02:03 38.75694 -77.01294 3387 ft 249 kts 131°
2026-05-08 02:03 38.74879 -76.99262 3850 ft 269 kts 101°
2026-05-08 02:03 38.74698 -76.96878 4608 ft 276 kts 87°
2026-05-08 02:03 38.74950 -76.94450 5434 ft 277 kts 66°
2026-05-08 02:04 38.75853 -76.92288 6304 ft 275 kts 49°
2026-05-08 02:04 38.77122 -76.90455 7103 ft 276 kts 36°
2026-05-08 02:04 38.78692 -76.89033 7861 ft 279 kts 25°
2026-05-08 02:04 38.80361 -76.87724 8637 ft 285 kts 25°
2026-05-08 02:05 38.82074 -76.86382 9395 ft 292 kts 24°
2026-05-08 02:05 38.83832 -76.85011 10142 ft 298 kts 24°
2026-05-08 02:05 38.85669 -76.83581 10437 ft 322 kts 26°
2026-05-08 02:05 38.87516 -76.81744 10763 ft 347 kts 37°
2026-05-08 02:06 38.89324 -76.79637 11367 ft 356 kts 37°
2026-05-08 02:06 38.91184 -76.77472 12009 ft 363 kts 37°
2026-05-08 02:06 38.93076 -76.75271 12636 ft 371 kts 37°
2026-05-08 02:06 38.95010 -76.73027 13293 ft 378 kts 37°
2026-05-08 02:07 38.96983 -76.70742 13900 ft 385 kts 37°
2026-05-08 02:07 38.98989 -76.68417 14478 ft 391 kts 37°
2026-05-08 02:07 39.01023 -76.66059 15074 ft 396 kts 37°
2026-05-08 02:07 39.03025 -76.63649 15649 ft 402 kts 39°
2026-05-08 02:08 39.05039 -76.61111 16281 ft 408 kts 40°
2026-05-08 02:08 39.07046 -76.58511 16828 ft 413 kts 40°
2026-05-08 02:08 39.09034 -76.55807 17401 ft 421 kts 46°
2026-05-08 02:08 39.10696 -76.52650 17957 ft 431 kts 59°
2026-05-08 02:09 39.11910 -76.49087 18467 ft 438 kts 71°
2026-05-08 02:09 39.12623 -76.45258 18967 ft 442 kts 82°
2026-05-08 02:09 39.13083 -76.41328 19489 ft 446 kts 83°
2026-05-08 02:09 39.13540 -76.37354 19984 ft 451 kts 83°
2026-05-08 02:10 39.13995 -76.33328 20477 ft 455 kts 83°
2026-05-08 02:10 39.14447 -76.29275 20960 ft 460 kts 83°
2026-05-08 02:10 39.14900 -76.25168 21450 ft 464 kts 83°
2026-05-08 02:10 39.15357 -76.21029 21936 ft 469 kts 83°
2026-05-08 02:11 39.15828 -76.16858 22416 ft 473 kts 82°
2026-05-08 02:11 39.16311 -76.12642 22869 ft 477 kts 82°
2026-05-08 02:11 39.16804 -76.08389 23387 ft 481 kts 82°
2026-05-08 02:11 39.17301 -76.04107 23793 ft 485 kts 82°
2026-05-08 02:12 39.17799 -75.99791 24172 ft 489 kts 82°
2026-05-08 02:12 39.18436 -75.95520 24575 ft 493 kts 74°
2026-05-08 02:12 39.19584 -75.91299 24942 ft 494 kts 63°
2026-05-08 02:12 39.21204 -75.87422 25307 ft 493 kts 52°
2026-05-08 02:13 39.23271 -75.83911 25666 ft 489 kts 41°
2026-05-08 02:13 39.25700 -75.80873 26033 ft 484 kts 32°
2026-05-08 02:13 39.28278 -75.78067 26360 ft 487 kts 32°
2026-05-08 02:13 39.30842 -75.75272 26728 ft 489 kts 32°
2026-05-08 02:14 39.33448 -75.72422 27083 ft 492 kts 32°
2026-05-08 02:14 39.36060 -75.69559 27438 ft 495 kts 32°
2026-05-08 02:14 39.38697 -75.66663 27815 ft 498 kts 32°
2026-05-08 02:14 39.41347 -75.63751 28141 ft 501 kts 32°
2026-05-08 02:15 39.44010 -75.60821 28474 ft 504 kts 32°
2026-05-08 02:15 39.46693 -75.57867 28792 ft 507 kts 32°
2026-05-08 02:15 39.49380 -75.54907 29117 ft 510 kts 32°
2026-05-08 02:15 39.52085 -75.51923 29429 ft 512 kts 32°
2026-05-08 02:16 39.54805 -75.48922 29748 ft 515 kts 32°
2026-05-08 02:16 39.57533 -75.45910 30061 ft 517 kts 32°
2026-05-08 02:16 39.60279 -75.42874 30299 ft 520 kts 32°
2026-05-08 02:16 39.63039 -75.39820 30524 ft 522 kts 32°
2026-05-08 02:17 39.65804 -75.36759 30774 ft 524 kts 32°
2026-05-08 02:17 39.68578 -75.33679 30991 ft 526 kts 32°
2026-05-08 02:17 39.71366 -75.30579 31231 ft 528 kts 32°
2026-05-08 02:17 39.74155 -75.27470 31519 ft 528 kts 32°
2026-05-08 02:18 39.76943 -75.24356 31856 ft 528 kts 32°
2026-05-08 02:18 39.79661 -75.21092 32178 ft 535 kts 39°
2026-05-08 02:18 39.82140 -75.17462 32489 ft 538 kts 41°
2026-05-08 02:18 39.84604 -75.13791 32797 ft 538 kts 41°
2026-05-08 02:19 39.87063 -75.10122 33110 ft 538 kts 41°
2026-05-08 02:19 39.89520 -75.06458 33405 ft 538 kts 41°
2026-05-08 02:19 39.91983 -75.02789 33698 ft 537 kts 41°
2026-05-08 02:19 39.94445 -74.99122 34081 ft 537 kts 41°
2026-05-08 02:20 39.96861 -74.95412 34382 ft 539 kts 47°
2026-05-08 02:20 39.99004 -74.91366 34656 ft 542 kts 51°
2026-05-08 02:20 40.01090 -74.87265 34913 ft 541 kts 51°
2026-05-08 02:20 40.03138 -74.83243 35163 ft 541 kts 51°
2026-05-08 02:21 40.05219 -74.79162 35412 ft 540 kts 51°
2026-05-08 02:21 40.07297 -74.75084 35660 ft 539 kts 51°
2026-05-08 02:21 40.09375 -74.70998 35863 ft 539 kts 51°
2026-05-08 02:21 40.11450 -74.66916 36136 ft 538 kts 52°
2026-05-08 02:22 40.13512 -74.62851 36377 ft 537 kts 52°
2026-05-08 02:22 40.15569 -74.58776 36587 ft 537 kts 52°
2026-05-08 02:22 40.17621 -74.54707 36794 ft 536 kts 52°
2026-05-08 02:22 40.19804 -74.50767 36880 ft 530 kts 44°
2026-05-08 02:23 40.25086 -74.44319 36899 ft 515 kts 31°
2026-05-08 02:23 40.30653 -74.38408 36901 ft 516 kts 31°
2026-05-08 02:24 40.36213 -74.32462 36906 ft 516 kts 32°
2026-05-08 02:24 40.41770 -74.26490 36902 ft 516 kts 32°
2026-05-08 02:25 40.47334 -74.20499 36971 ft 517 kts 32°
2026-05-08 02:25 40.52656 -74.14159 36892 ft 526 kts 45°
2026-05-08 02:26 40.54816 -74.10249 36888 ft 532 kts 56°
2026-05-08 02:26 40.56499 -74.05909 36886 ft 536 kts 67°
2026-05-08 02:26 40.58793 -73.96565 36870 ft 538 kts 73°
2026-05-08 02:27 40.60979 -73.87132 36883 ft 539 kts 73°
2026-05-08 02:27 40.63608 -73.77907 36922 ft 538 kts 58°
2026-05-08 02:28 40.65636 -73.73822 36910 ft 532 kts 46°
2026-05-08 02:28 40.68053 -73.70181 36900 ft 529 kts 42°
2026-05-08 02:28 40.70531 -73.66586 36497 ft 531 kts 42°
2026-05-08 02:28 40.72976 -73.63024 35269 ft 533 kts 42°
2026-05-08 02:29 40.75470 -73.59379 34117 ft 535 kts 42°
2026-05-08 02:29 40.77950 -73.55733 33076 ft 531 kts 42°
2026-05-08 02:29 40.80393 -73.52125 32158 ft 524 kts 43°
2026-05-08 02:29 40.82836 -73.48509 31245 ft 517 kts 43°
2026-05-08 02:30 40.85183 -73.45037 30383 ft 511 kts 43°
2026-05-08 02:30 40.87533 -73.41564 29465 ft 505 kts 43°
2026-05-08 02:30 40.89859 -73.38129 28525 ft 498 kts 43°
2026-05-08 02:30 40.92109 -73.34710 28040 ft 481 kts 44°
2026-05-08 02:31 40.94277 -73.31435 27619 ft 467 kts 43°
2026-05-08 02:31 40.96424 -73.28240 27311 ft 462 kts 43°
2026-05-08 02:31 40.98566 -73.25092 27104 ft 459 kts 43°
2026-05-08 02:31 41.00705 -73.21966 26850 ft 457 kts 43°
2026-05-08 02:32 41.02826 -73.18861 26600 ft 455 kts 43°
2026-05-08 02:32 41.04938 -73.15751 26349 ft 453 kts 43°
2026-05-08 02:32 41.07037 -73.12636 26101 ft 451 kts 44°
2026-05-08 02:32 41.09119 -73.09537 25840 ft 450 kts 44°
2026-05-08 02:33 41.11199 -73.06443 25588 ft 447 kts 44°
2026-05-08 02:33 41.13237 -73.03410 25087 ft 447 kts 44°
2026-05-08 02:33 41.15299 -73.00331 24543 ft 449 kts 44°
2026-05-08 02:33 41.17382 -72.97221 23954 ft 452 kts 44°
2026-05-08 02:34 41.19470 -72.94099 23310 ft 454 kts 45°
2026-05-08 02:34 41.21371 -72.90743 22905 ft 451 kts 58°
2026-05-08 02:34 41.22818 -72.87119 22785 ft 439 kts 63°
2026-05-08 02:34 41.24185 -72.83540 22606 ft 431 kts 63°
2026-05-08 02:35 41.25546 -72.80004 22330 ft 427 kts 63°
2026-05-08 02:35 41.26896 -72.76499 22068 ft 425 kts 63°
2026-05-08 02:35 41.28236 -72.73012 21798 ft 423 kts 63°
2026-05-08 02:35 41.29572 -72.69534 21587 ft 420 kts 63°
2026-05-08 02:36 41.30896 -72.66071 21330 ft 420 kts 63°
2026-05-08 02:36 41.32194 -72.62663 21078 ft 418 kts 63°
2026-05-08 02:36 41.33507 -72.59212 20836 ft 415 kts 64°
2026-05-08 02:36 41.34807 -72.55784 20908 ft 416 kts 64°
2026-05-08 02:37 41.36104 -72.52353 20906 ft 416 kts 64°
2026-05-08 02:37 41.37405 -72.48910 20905 ft 416 kts 64°
2026-05-08 02:37 41.38707 -72.45473 20905 ft 416 kts 64°
2026-05-08 02:37 41.40010 -72.42034 20906 ft 416 kts 64°
2026-05-08 02:38 41.40889 -72.39705 20906 ft 416 kts 64°
2026-05-08 02:38 41.42167 -72.36320 20903 ft 416 kts 64°
2026-05-08 02:38 41.43465 -72.32871 20901 ft 416 kts 64°
2026-05-08 02:38 41.44760 -72.29421 20896 ft 416 kts 64°
2026-05-08 02:39 41.46055 -72.25974 20894 ft 416 kts 64°
2026-05-08 02:39 41.47352 -72.22524 20885 ft 416 kts 64°
2026-05-08 02:39 41.48643 -72.19073 20776 ft 416 kts 64°
2026-05-08 02:39 41.49916 -72.15616 20538 ft 414 kts 65°
2026-05-08 02:40 41.51173 -72.12172 20288 ft 412 kts 65°
2026-05-08 02:40 41.52421 -72.08744 20040 ft 410 kts 65°
2026-05-08 02:40 41.53660 -72.05328 19794 ft 408 kts 65°
2026-05-08 02:40 41.54894 -72.01926 19549 ft 406 kts 65°
2026-05-08 02:41 41.56102 -71.98531 19310 ft 404 kts 67°
2026-05-08 02:41 41.57212 -71.95098 19062 ft 402 kts 70°
2026-05-08 02:41 41.58241 -71.91654 18852 ft 400 kts 71°
2026-05-08 02:41 41.59239 -71.88186 18594 ft 399 kts 71°
2026-05-08 02:42 41.60225 -71.84731 18358 ft 397 kts 71°
2026-05-08 02:42 41.61211 -71.81291 18123 ft 396 kts 71°
2026-05-08 02:42 41.62188 -71.77909 17736 ft 394 kts 71°
2026-05-08 02:42 41.63180 -71.74505 17341 ft 392 kts 70°
2026-05-08 02:43 41.64178 -71.71123 16955 ft 390 kts 70°
2026-05-08 02:43 41.65176 -71.67756 16572 ft 388 kts 70°
2026-05-08 02:43 41.66162 -71.64412 16205 ft 385 kts 70°
2026-05-08 02:43 41.67132 -71.61105 15967 ft 379 kts 70°
2026-05-08 02:44 41.68091 -71.57832 15605 ft 377 kts 69°
2026-05-08 02:44 41.69040 -71.54603 15376 ft 370 kts 69°
2026-05-08 02:44 41.69984 -71.51384 15000 ft 368 kts 69°
2026-05-08 02:44 41.70907 -71.48220 14717 ft 364 kts 69°
2026-05-08 02:45 41.71825 -71.45068 14427 ft 361 kts 69°
2026-05-08 02:45 41.72853 -71.42051 13942 ft 353 kts 59°
2026-05-08 02:45 41.74072 -71.39232 13383 ft 346 kts 58°
2026-05-08 02:45 41.75261 -71.36463 12806 ft 340 kts 58°
2026-05-08 02:46 41.76419 -71.33748 12447 ft 334 kts 58°
2026-05-08 02:46 41.77568 -71.31050 12181 ft 330 kts 58°
2026-05-08 02:46 41.78699 -71.28395 11931 ft 327 kts 58°
2026-05-08 02:46 41.79823 -71.25758 11708 ft 325 kts 58°
2026-05-08 02:47 41.80934 -71.23147 11381 ft 322 kts 58°
2026-05-08 02:47 41.82035 -71.20552 11052 ft 319 kts 58°
2026-05-08 02:47 41.83139 -71.17991 10723 ft 316 kts 57°
2026-05-08 02:47 41.84258 -71.15473 10398 ft 313 kts 56°
2026-05-08 02:48 41.85372 -71.12990 10097 ft 310 kts 56°
2026-05-08 02:48 41.86480 -71.10523 9765 ft 307 kts 56°
2026-05-08 02:48 41.87571 -71.08084 9418 ft 303 kts 56°
2026-05-08 02:48 41.88647 -71.05667 9104 ft 299 kts 56°
2026-05-08 02:49 41.89704 -71.03278 8790 ft 296 kts 56°
2026-05-08 02:49 41.90734 -71.00937 8580 ft 288 kts 56°
2026-05-08 02:49 41.91745 -70.98636 8225 ft 285 kts 55°
2026-05-08 02:49 41.92759 -70.96378 7937 ft 279 kts 53°
2026-05-08 02:50 41.93827 -70.94216 7844 ft 277 kts 51°
2026-05-08 02:50 41.94928 -70.92089 7714 ft 276 kts 50°
2026-05-08 02:50 41.96032 -70.89983 7587 ft 276 kts 50°
2026-05-08 02:50 41.97133 -70.87877 7449 ft 275 kts 51°
2026-05-08 02:51 41.98228 -70.85765 7308 ft 276 kts 52°
2026-05-08 02:51 41.99314 -70.83656 7183 ft 270 kts 52°
2026-05-08 02:51 42.00342 -70.81651 7049 ft 259 kts 52°
2026-05-08 02:51 42.01458 -70.79815 6835 ft 248 kts 40°
2026-05-08 02:52 42.02682 -70.78213 6785 ft 246 kts 41°
2026-05-08 02:52 42.03903 -70.76596 6681 ft 246 kts 41°
2026-05-08 02:52 42.05190 -70.74898 6560 ft 270 kts 41°
2026-05-08 02:52 42.06558 -70.73110 6436 ft 275 kts 41°
2026-05-08 02:53 42.07934 -70.71314 6312 ft 276 kts 41°
2026-05-08 02:53 42.09311 -70.69520 6183 ft 275 kts 41°
2026-05-08 02:53 42.10787 -70.68029 6045 ft 257 kts 22°
2026-05-08 02:53 42.12409 -70.67191 5910 ft 243 kts 16°
2026-05-08 02:54 42.13963 -70.66439 5777 ft 231 kts 16°
2026-05-08 02:54 42.15456 -70.65719 5645 ft 226 kts 16°
2026-05-08 02:54 42.16929 -70.65011 5512 ft 224 kts 16°
2026-05-08 02:54 42.18397 -70.64307 5390 ft 224 kts 16°
2026-05-08 02:55 42.19860 -70.63606 5243 ft 223 kts 17°
2026-05-08 02:55 42.22767 -70.62208 5027 ft 222 kts 17°
2026-05-08 02:55 42.24222 -70.61510 5008 ft 221 kts 17°
2026-05-08 02:56 42.25674 -70.60813 5007 ft 222 kts 17°
2026-05-08 02:56 42.27111 -70.60128 5006 ft 219 kts 17°
2026-05-08 02:56 42.28518 -70.59453 5006 ft 211 kts 17°
2026-05-08 02:56 42.29900 -70.58787 5006 ft 211 kts 17°
2026-05-08 02:57 42.31287 -70.58120 5009 ft 211 kts 17°
2026-05-08 02:57 42.32668 -70.57457 5014 ft 210 kts 17°
2026-05-08 02:57 42.34031 -70.56801 5005 ft 210 kts 17°
2026-05-08 02:57 42.35430 -70.56250 5017 ft 209 kts 11°
2026-05-08 02:58 42.36841 -70.55724 5009 ft 210 kts 13°
2026-05-08 02:58 42.38244 -70.55160 5007 ft 206 kts 13°
2026-05-08 02:58 42.39569 -70.54615 5002 ft 193 kts 12°
2026-05-08 02:58 42.40863 -70.54443 5002 ft 185 kts 347°
2026-05-08 02:59 42.42029 -70.55083 5010 ft 181 kts 321°
2026-05-08 02:59 42.42824 -70.56341 5008 ft 180 kts 295°
2026-05-08 02:59 42.43100 -70.57985 5010 ft 182 kts 269°
2026-05-08 02:59 42.42861 -70.59678 5015 ft 184 kts 259°
2026-05-08 03:00 42.42565 -70.61367 5009 ft 184 kts 259°
2026-05-08 03:00 42.42276 -70.63030 5019 ft 185 kts 259°
2026-05-08 03:00 42.41983 -70.64717 4995 ft 184 kts 259°
2026-05-08 03:00 42.41690 -70.66402 4891 ft 184 kts 259°
2026-05-08 03:01 42.41399 -70.68081 4641 ft 182 kts 259°
2026-05-08 03:01 42.41110 -70.69743 4394 ft 181 kts 260°
2026-05-08 03:01 42.40821 -70.71400 4147 ft 180 kts 260°
2026-05-08 03:01 42.40535 -70.73044 3904 ft 180 kts 260°
2026-05-08 03:02 42.40248 -70.74689 3657 ft 179 kts 260°
2026-05-08 03:02 42.39964 -70.76317 3418 ft 177 kts 261°
2026-05-08 03:02 42.39685 -70.77913 3184 ft 171 kts 261°
2026-05-08 03:02 42.39417 -70.79447 2957 ft 167 kts 261°
2026-05-08 03:03 42.39153 -70.80953 2730 ft 162 kts 261°
2026-05-08 03:03 42.38898 -70.82410 2503 ft 154 kts 262°
2026-05-08 03:03 42.38661 -70.83753 2323 ft 140 kts 263°
2026-05-08 03:03 42.38443 -70.84997 2133 ft 132 kts 263°
2026-05-08 03:04 42.38235 -70.86189 1948 ft 129 kts 264°
2026-05-08 03:04 42.38033 -70.87344 1780 ft 127 kts 263°
2026-05-08 03:04 42.37826 -70.88510 1603 ft 127 kts 263°
2026-05-08 03:04 42.37623 -70.89670 1429 ft 127 kts 262°
2026-05-08 03:05 42.37419 -70.90833 1250 ft 126 kts 261°
2026-05-08 03:05 42.37219 -70.91971 1079 ft 124 kts 260°
2026-05-08 03:05 42.37019 -70.93109 913 ft 125 kts 259°
2026-05-08 03:05 42.36817 -70.94258 746 ft 125 kts 259°
2026-05-08 03:06 42.36619 -70.95378 583 ft 124 kts 258°
2026-05-08 03:06 42.36418 -70.96523 417 ft 125 kts 258°
2026-05-08 03:06 42.36219 -70.97664 250 ft 123 kts 258°
2026-05-08 03:06 42.36018 -70.98793 60 ft 123 kts 258°
2026-05-08 03:07 42.35842 -70.99805 25 ft 80 kts 256°
2026-05-08 03:07 42.35776 -71.00169 25 ft 17 kts 256°
2026-05-08 03:07 42.35754 -71.00319 25 ft 16 kts 273°
2026-05-08 03:07 42.35763 -71.00475 30 ft 17 kts 277°
2026-05-08 03:08 42.35779 -71.00633 27 ft 17 kts 278°
2026-05-08 03:08 42.35796 -71.00791 25 ft 17 kts 278°
2026-05-08 03:08 42.35814 -71.00953 25 ft 18 kts 278°
2026-05-08 03:08 42.35831 -71.01101 25 ft 11 kts 278°
2026-05-08 03:09 42.35840 -71.01192 26 ft 11 kts 278°
2026-05-08 03:09 42.35852 -71.01301 27 ft 13 kts 278°
2026-05-08 03:09 42.35867 -71.01427 27 ft 14 kts 281°
2026-05-08 03:09 42.35885 -71.01565 25 ft 16 kts 279°
2026-05-08 03:10 42.35919 -71.01634 28 ft 7 kts
2026-05-08 03:10 42.35960 -71.01616 25 ft 6 kts 20°
2026-05-08 03:10 42.35994 -71.01599 27 ft 5 kts 20°
2026-05-08 03:10 42.36019 -71.01600 26 ft 3 kts 329°
2026-05-08 03:11 42.36025 -71.01627 25 ft 7 kts 292°
2026-05-08 03:11 42.36041 -71.01683 29 ft 5 kts 289°
2026-05-08 03:11 42.36047 -71.01710 26 ft 0 kts 289°